User: anonymous   Login
Location: NJAA Observatory
(40.6819°N, 74.8979°W)
Time: 08:22:54
(UTC-04:00)
Language:

Cosmos 2082 - Orbit

View from above orbital plane
View from above orbital plane
View from above satellite
View from above satellite

Ground track
Ground track

The orbit data is extracted from the following two-line orbital elements,

1 20624U 90046A   17174.63336960 -.00000211 +00000-0 -85605-4 0  9993
2 20624 071.0385 201.0776 0014425 008.8243 351.3130 14.14222484397887
Epoch (UTC): 23 June 2017 15:12:03
Eccentricity: 0.0014425
inclination: 71.0385°
perigee height: 834 km
apogee height: 855 km
right ascension of ascending node: 201.0776°
argument of perigee: 8.8243°
revolutions per day: 14.14222484
mean anomaly at epoch: 351.3130°
orbit number at epoch: 39788

The dashed part of the orbit path shows where the satellite is in the earth's shadow,  

DLR